• Processing (Info)

  • MPEC 2023-C151 : 2023 CD3

    The following Minor Planet Electronic Circular may be linked-to from your own Web pages, but must not otherwise be redistributed electronically.

    A form allowing access to any MPEC is at the bottom of this page.


    Read MPEC 2023-C150 Read MPEC 2023-C152


    M.P.E.C. 2023-C151                            Issued 2023 February 14, 21:36 UT
    
         The Minor Planet Electronic Circulars contain information on unusual
             minor planets, routine data on comets and natural satellites,
             and occasional editorial announcements.  They are published
        on behalf of Division F of the International Astronomical Union by the
              Minor Planet Center, Smithsonian Astrophysical Observatory,
                              Cambridge, MA 02138, U.S.A.
    			  
                 Prepared using the Tamkin Foundation Computer Network
    
                                  MPC@CFA.HARVARD.EDU
                URL https://www.minorplanetcenter.net/    ISSN 1523-6714
    
                                    2023 CD3                                 
    
    
    Observations:
         K23C03D*1C2023 02 13.23480508 47 37.338+28 04 36.19         19.63GVEC151703
         K23C03D 1C2023 02 13.24057808 47 35.876+28 07 08.47         19.53GVEC151703
         K23C03D 1C2023 02 13.24632108 47 34.616+28 09 37.66         19.60GVEC151703
         K23C03D 1C2023 02 13.25207408 47 33.227+28 12 09.40         20.71GVEC151703
         K23C03D KC2023 02 13.34023208 47 11.897+28 50 26.66         19.51GVEC151I52
         K23C03D KC2023 02 13.34125508 47 11.645+28 50 53.09         19.70GVEC151I52
         K23C03D KC2023 02 13.34226008 47 11.389+28 51 18.72         19.36GVEC151I52
         K23C03D KC2023 02 13.34326908 47 11.177+28 51 45.43         19.96GVEC151I52
         K23C03D KC2023 02 13.78913808 45 42.41 +32 03 54.7          20.1 GXEC151I93
         K23C03D KC2023 02 13.79189808 45 41.77 +32 05 06.7          20.0 GXEC151I93
         K23C03D KC2023 02 13.79465308 45 41.14 +32 06 17.4          19.6 GXEC151I93
         K23C03D KC2023 02 13.79711 08 45 36.66 +32 08 08.6          19.9 rZEC151C97
         K23C03D KC2023 02 13.79740708 45 40.47 +32 07 29.2          19.4 GXEC151I93
         K23C03D KC2023 02 13.80507 08 45 34.61 +32 11 33.4          19.9 rZEC151C97
         K23C03D KC2023 02 13.85065 08 45 27.11 +32 30 28.9                VEC151204
         K23C03D KC2023 02 13.86000 08 45 24.83 +32 34 30.3                VEC151204
         K23C03D KC2023 02 13.86999 08 45 22.35 +32 38 48.0          19.4 GVEC151204
         K23C03D KC2023 02 13.94050508 45 04.22 +33 09 01.2          19.7 VSEC151L01
         K23C03D KC2023 02 13.94153008 45 03.98 +33 09 27.4          20.0 VSEC151L01
         K23C03D KC2023 02 13.94256208 45 03.74 +33 09 53.9          20.1 VSEC151L01
         K23C03D KC2023 02 13.94372408 45 03.44 +33 10 23.4          19.7 VSEC151L01
         K23C03D KC2023 02 13.94539608 45 03.01 +33 11 06.3          19.6 VSEC151L01
         K23C03D KC2023 02 14.25629608 43 51.38 +35 23 06.8          19.3 GVEC151H21
         K23C03D KC2023 02 14.25822408 43 50.85 +35 23 55.3          19.7 GVEC151H21
         K23C03D KC2023 02 14.26015208 43 50.37 +35 24 44.0          19.9 GVEC151H21
         K23C03D KC2023 02 14.26208108 43 49.85 +35 25 32.4          19.9 GVEC151H21
         K23C03D KC2023 02 14.75435 08 41 59.19 +38 49 36.9          18.5 RZEC151C95
         K23C03D KC2023 02 14.75437008 41 58.86 +38 49 39.3          19.7 GUEC151L06
         K23C03D KC2023 02 14.75510008 41 58.67 +38 49 57.0          20.0 GUEC151L06
         K23C03D KC2023 02 14.76220 08 41 57.20 +38 52 51.2          19.2 RZEC151C95
         K23C03D KC2023 02 14.76986 08 41 55.17 +38 56 01.2          18.8 RZEC151C95
         K23C03D KC2023 02 14.77753 08 41 53.17 +38 59 12.0          19.0 RZEC151C95
         K23C03D KC2023 02 14.77835208 41 52.625+38 59 20.58         19.5 GVEC151J95
         K23C03D KC2023 02 14.78518 08 41 51.20 +39 02 21.4          18.8 RZEC151C95
         K23C03D KC2023 02 14.79070608 41 49.406+39 04 26.29         19.6 GVEC151J95
         K23C03D KC2023 02 14.79286 08 41 49.17 +39 05 31.5          19.4 RZEC151C95
         K23C03D 1C2023 02 14.82545808 41 39.620+39 18 52.50               qEC151246
         K23C03D 1C2023 02 14.82575308 41 39.480+39 19 01.80               qEC151246
         K23C03D 1C2023 02 14.82618208 41 39.420+39 19 10.70               qEC151246
         K23C03D 1C2023 02 14.82661108 41 39.180+39 19 23.60               qEC151246
         K23C03D KC2023 02 14.83160908 41 38.370+39 21 28.92         19.4 GVEC151K63
         K23C03D KC2023 02 14.83755808 41 36.801+39 23 56.00         19.5 GVEC151K63
         K23C03D KC2023 02 14.84799408 41 33.63 +39 28 10.4                XEC151595
         K23C03D KC2023 02 14.85721108 41 31.03 +39 31 56.4          19.3 GXEC151595
         K23C03D KC2023 02 14.86643008 41 28.50 +39 35 41.7          19.8 GXEC151595
         K23C03D KC2023 02 14.87292808 41 26.97 +39 38 23.1          19.5 GVEC151104
         K23C03D KC2023 02 14.87783008 41 25.60 +39 40 23.0          19.7 GVEC151104
         K23C03D KC2023 02 14.88264508 41 24.24 +39 42 21.1          19.5 GVEC151104
    
    Observer details:
    104 San Marcello Pistoiese.  Observers P. Bacci, M. Maestripieri.  Measurer P.
        Bacci.  0.60-m f/4.0 reflector + CCD.
    204 Schiaparelli Observatory.  Observer L. Buzzi.  0.84-m f/3.5 reflector +
        CCD.
    246 Klet Observatory-KLENOT.  Observers M. Tichy, J. Ticha, M. Janda, M.
        Honkova.  Measurer M. Tichy.  1.06-m f/2.7 Reflector + 2048x2048 CCD.
    595 Farra d'Isonzo.  Observers G. Panterotto, E. Pettarin.  Measurer E.
        Pettarin.  0.61-m f/4.5 reflector + CCD.
    703 Catalina Sky Survey.  Observer G. J. Leonard.  Measurers E. J.
        Christensen, D. Fay, J. B. Fazekas, D. C. Fuls, A. R. Gibbs, A. D. Grauer,
        H. Groeller, J. K. Hogan, R. A. Kowalski, S. M. Larson, G. J. Leonard, D.
        Rankin, R. L. Seaman, A. Serrano, F. C. Shelly, K. W. Wierzchos.  0.68-m
        Schmidt + 10K CCD.
    C95 SATINO Remote Observatory, Haute Provence.  Observer D. Husar.  0.30-m
        f/5.8 reflector + CCD.
    C97 Al-Fulaij Observatory, Oman.  Observers M. AlAnqoodi, A. AlHaji, Y.
        AlMajrafi.  0.61-m f/7.84 reflector + CCD.
    H21 Astronomical Research Observatory, Westfield.  Observer R. Holmes.
        Measurers T. Linder, R. Holmes, L. Horn.  0.76-m f/3.0 astrograph + CCD.
    I52 Steward Observatory, Mt. Lemmon Station.  Observer R. A. Kowalski.
        Measurers E. J. Christensen, D. Fay, J. B. Fazekas, D. C. Fuls, A. R.
        Gibbs, A. D. Grauer, H. Groeller, J. K. Hogan, R. A. Kowalski, S. M.
        Larson, G. J. Leonard, D. Rankin, R. L. Seaman, A. Serrano, F. C. Shelly,
        K. W. Wierzchos.  1.0-m prime focus + CCD.
    I93 St Pardon de Conques.  Observer F. Losse.  0.40-m f/3.7 reflector + CCD.
    J95 Great Shefford.  Observer P. Birtwhistle.  0.41-m f/6.3 Schmidt-Cassegrain
        + CCD.
    K63 G. Pascoli Observatory, Castelvecchio Pascoli.  Observer R. Bacci.  0.41-m
        f/3.2 Reflector + CCD.
    L01 Visnjan Observatory, Tican.  Observer K. Korlevic.  1.0-m f/2.9 reflector
        + CCD.
    L06 Sormano 2 Observatory, Bellagio Via Lattea.  Observer G. Ventre.  Measurer
        P. Sicoli.  0.36m Schmidt Cassegrain + CCD.
    
    Orbital elements:
    2023 CD3                                                 Earth MOID = 0.0984 AU
    Epoch 2023 Feb. 25.0 TT = JDT 2460000.5                 Veres                   
    M 339.46097              (2000.0)            P               Q                  
    n   0.62251247     Peri.   47.36347     -0.86709272     +0.26306348             
    a   1.3584303      Node   141.33826     -0.19774345     -0.96118592             
    e   0.2506004      Incl.   42.62035     +0.45721739     +0.08318188             
    P   1.58           H   23.51          G   0.15           U   8                  
    Residuals in seconds of arc
    230213 703  0.2+  0.7-    230213 204  0.0   0.2+    230214 J95  0.1+  0.7-
    230213 703  0.9-  0.5+    230213 L01  0.5-  0.1+    230214 C95  0.2+  0.6-
    230213 703  0.7+  0.5-    230213 L01  0.2-  0.1+    230214 J95  0.3-  0.2-
    230213 703  0.6+  0.8+    230213 L01  0.0   0.1+    230214 C95  0.2+  0.4-
    230213 I52  0.0   0.3+    230213 L01  0.0   0.1-    230214 246  0.5+  0.6-
    230213 I52  0.1-  0.1+    230213 L01  0.1-  0.0     230214 246  0.2-  1.5+
    230213 I52  0.3-  0.4-    230214 H21  0.1+  0.1+    230214 246  0.5+  0.1-
    230213 I52  0.1+  0.1+    230214 H21  0.2-  0.0     230214 246  1.0-  2.2+
    230213 I93  0.2+  0.3+    230214 H21  0.2+  0.1+    230214 K63  0.5-  0.2-
    230213 I93  0.2+  0.7+    230214 H21  0.1+  0.1-    230214 K63  0.2+  0.6+
    230213 I93  0.3+  0.1-    230214 C95  0.0   1.7-    230214 595  0.3+  0.2+
    230213 C97  0.3-  0.1-    230214 L06  0.4-  0.2+    230214 595  0.3-  0.2+
    230213 I93  0.1-  0.3+    230214 L06  0.5-  0.2-    230214 595  0.0   0.3-
    230213 C97  0.2-  0.4-    230214 C95  0.4+  2.0-    230214 104  0.0   0.1+
    230213 204  0.1-  0.1+    230214 C95  0.2-  1.7-    230214 104  0.0   0.1+
    230213 204  0.1+  0.2+    230214 C95  0.2-  0.8-    230214 104  0.2-  0.5+
    
    Ephemeris:
    2023 CD3                 a,e,i = 1.36, 0.25, 43                  q = 1.0180
    Date    TT    R. A. (2000) Decl.     Delta      r    Elong.  Phase     V
    2023 01 15    09 21 10.6 -44 58 49   0.3945  1.1794   110.2    51.5    23.8
    ...
    2023 01 30    09 14 16.0 -33 38 58   0.2110  1.1274   128.1    43.4    22.1
    ...
    2023 02 07    09 03 27.1 -11 07 38   0.1286  1.1023   153.0    24.0    20.4
    ...
    2023 02 13    08 48 23.8 +26 22 05   0.1025  1.0850   161.8    16.5    19.6
    2023 02 14    08 44 51.5 +33 34 21   0.1036  1.0823   155.2    22.5    19.8
    2023 02 15    08 40 53.5 +40 29 37   0.1063  1.0796   148.4    28.7    20.1
    ...
    2023 02 21    08 01 45.0 +70 16 09   0.1483  1.0644   117.0    55.9    21.5
    ...
    2023 03 01    04 31 55.4 +84 53 36   0.2331  1.0471    97.6    69.7    22.9
    ...
    2023 03 16    22 35 13.9 +80 24 39   0.4006  1.0250    82.9    74.3    24.2
    
    M. P. C. Staff               (C) Copyright 2023 MPC           M.P.E.C. 2023-C151
    


    Read MPEC 2023-C150 Read MPEC 2023-C152


    MPEC number:

    Enter an MPEC number in one of the following forms:

    • 1997-B01 (the full form)
    • J97B01 (the packed version of the full form)
    • B01 (the abbreviated form)